| time (UTC) | temp F | wind direction | speed MPH | gust MPH | rain 1hr in | rain 24hr in | rain mn in | humidity % | barometer mb |
| 20260901054119 | 55 | 45 | 2.0 | 4.0 | 0.00 | 0.00 | 0.00 | 92 | 1022.4 |
| 20260901052732 | 55 | 45 | 2.0 | 4.0 | 0.00 | 0.00 | 0.00 | 92 | 1022.3 |
| 20260901051447 | 55 | 45 | 2.0 | 4.0 | 0.00 | 0.00 | 0.00 | 92 | 1022.3 |
| 20260901044752 | 55 | 45 | 2.0 | 4.0 | 0.00 | 0.00 | 0.00 | 93 | 1022.3 |
| 20260901043336 | 57 | 0 | 2.0 | 4.0 | 0.00 | 0.00 | 0.00 | 90 | 1022.1 |
| 20260901042132 | 57 | 0 | 2.0 | 4.0 | 0.00 | 0.00 | 0.00 | 90 | 1022.1 |
| 20260901040852 | 57 | 0 | 2.0 | 4.0 | 0.00 | 0.00 | 0.00 | 90 | 1022.1 |
| 20260901035524 | 57 | 0 | 2.0 | 3.0 | 0.00 | 0.00 | 0.00 | 88 | 1022.2 |
| 20260901034157 | 57 | 0 | 2.0 | 3.0 | 0.00 | 0.00 | 0.00 | 88 | 1022.2 |
| 20260901032807 | 58 | 135 | 2.0 | 3.0 | 0.00 | 0.00 | 0.00 | 86 | 1022.0 |
| 20260901031427 | 58 | 135 | 2.0 | 3.0 | 0.00 | 0.00 | 0.00 | 86 | 1022.0 |
| 20260901025952 | 58 | 0 | 2.0 | 6.0 | 0.00 | 0.00 | 0.00 | 84 | 1022.0 |
| 20260901024716 | 58 | 0 | 2.0 | 6.0 | 0.00 | 0.00 | 0.00 | 84 | 1022.0 |
| 20260901023407 | 56 | 45 | 2.0 | 3.0 | 0.00 | 0.00 | 0.00 | 88 | 1022.2 |
| 20260901021938 | 56 | 45 | 2.0 | 3.0 | 0.00 | 0.00 | 0.00 | 88 | 1022.2 |
| 20260901020636 | 56 | 45 | 2.0 | 3.0 | 0.00 | 0.00 | 0.00 | 88 | 1022.2 |
| 20260901015412 | 56 | 45 | 2.0 | 6.0 | 0.00 | 0.00 | 0.00 | 86 | 1022.3 |
| 20260901014032 | 56 | 45 | 2.0 | 6.0 | 0.00 | 0.00 | 0.00 | 86 | 1022.3 |
| 20260901012627 | 56 | 0 | 2.0 | 4.0 | 0.00 | 0.00 | 0.00 | 87 | 1022.3 |
| 20260901011407 | 56 | 0 | 2.0 | 4.0 | 0.00 | 0.00 | 0.00 | 87 | 1022.3 |
| 20260901010012 | 56 | 0 | 2.0 | 4.0 | 0.00 | 0.00 | 0.00 | 86 | 1022.3 |
| 20260901004712 | 56 | 0 | 2.0 | 4.0 | 0.00 | 0.00 | 0.00 | 86 | 1022.3 |
| 20260901003427 | 57 | 0 | 2.0 | 3.0 | 0.00 | 0.00 | 1.07 | 84 | 1022.1 |
| 20260901002147 | 57 | 0 | 2.0 | 3.0 | 0.00 | 0.00 | 1.07 | 84 | 1022.1 |
| 20260901000802 | 57 | 0 | 2.0 | 3.0 | 0.00 | 0.00 | 1.07 | 84 | 1022.1 |
| 20260831235452 | 57 | 45 | 2.0 | 4.0 | 0.00 | 0.00 | 1.07 | 81 | 1021.9 |
| 20260831234132 | 57 | 45 | 2.0 | 4.0 | 0.00 | 0.00 | 1.07 | 81 | 1021.9 |
| 20260831232852 | 58 | 315 | 2.0 | 4.0 | 0.00 | 0.00 | 1.07 | 79 | 1021.8 |
| 20260831231542 | 58 | 315 | 2.0 | 4.0 | 0.00 | 0.00 | 1.07 | 79 | 1021.8 |
| 20260831230217 | 59 | 90 | 2.0 | 6.0 | 0.00 | 0.00 | 1.07 | 77 | 1021.7 |
| 20260831224902 | 59 | 90 | 2.0 | 6.0 | 0.00 | 0.00 | 1.07 | 77 | 1021.7 |
| 20260831223617 | 59 | 90 | 2.0 | 6.0 | 0.00 | 0.00 | 1.07 | 77 | 1021.7 |
| 20260831222317 | 61 | 315 | 4.0 | 6.0 | 0.00 | 0.00 | 1.07 | 70 | 1021.3 |
| 20260831220842 | 61 | 315 | 4.0 | 6.0 | 0.00 | 0.00 | 1.07 | 70 | 1021.3 |
| 20260831215512 | 62 | 270 | 1.0 | 4.0 | 0.00 | 0.00 | 1.07 | 69 | 1021.2 |
| 20260831214147 | 62 | 270 | 1.0 | 4.0 | 0.00 | 0.00 | 1.07 | 69 | 1021.2 |
| 20260831212809 | 60 | 0 | 0.0 | 3.0 | 0.00 | 0.00 | 1.07 | 72 | 1021.0 |
| 20260831211332 | 60 | 0 | 0.0 | 3.0 | 0.00 | 0.00 | 1.07 | 72 | 1021.0 |
| 20260831210047 | 62 | 90 | 2.0 | 11.0 | 0.00 | 0.00 | 1.07 | 69 | 1020.6 |
| 20260831204717 | 62 | 90 | 2.0 | 11.0 | 0.00 | 0.00 | 1.07 | 69 | 1020.6 |
| 20260831203417 | 65 | 45 | 2.0 | 11.0 | 0.00 | 0.00 | 1.07 | 57 | 1020.0 |
| 20260831202017 | 65 | 45 | 2.0 | 11.0 | 0.00 | 0.00 | 1.07 | 57 | 1020.0 |
| 20260831200727 | 65 | 45 | 2.0 | 11.0 | 0.00 | 0.00 | 1.07 | 57 | 1020.0 |
| 20260831195507 | 69 | 315 | 8.0 | 22.0 | 0.00 | 0.00 | 1.07 | 49 | 1019.3 |
| 20260831194217 | 69 | 315 | 8.0 | 22.0 | 0.00 | 0.00 | 1.07 | 49 | 1019.3 |
| 20260831192822 | 32 | 0 | 0.0 | 0.0 | 0.00 | 0.00 | 1.07 | 1 | |
| 20260831191421 | 32 | 0 | 0.0 | 0.0 | 0.00 | 0.00 | 1.07 | 1 | |
| 20260831190117 | 72 | 270 | 14.0 | 30.0 | 0.00 | 0.00 | 1.07 | 41 | 1017.9 |
| 20260831184802 | 72 | 270 | 14.0 | 30.0 | 0.00 | 0.00 | 1.07 | 41 | 1017.9 |
| 20260831183340 | 73 | 270 | 16.0 | 25.0 | 0.00 | 0.00 | 1.07 | 45 | 1017.3 |
| 20260831181952 | 73 | 270 | 16.0 | 25.0 | 0.00 | 0.00 | 1.07 | 45 | 1017.3 |
| 20260831180612 | 73 | 270 | 16.0 | 25.0 | 0.00 | 0.00 | 1.07 | 45 | 1017.3 |
| 20260831175242 | 75 | 270 | 12.0 | 24.0 | 0.00 | 0.00 | 1.07 | 43 | 1016.7 |
| 20260831173912 | 75 | 270 | 12.0 | 24.0 | 0.00 | 0.00 | 1.07 | 43 | 1016.7 |
| 20260831172532 | 75 | 270 | 14.0 | 24.0 | 0.00 | 0.00 | 1.07 | 41 | 1016.4 |
| 20260831171257 | 75 | 270 | 14.0 | 24.0 | 0.00 | 0.00 | 1.07 | 41 | 1016.4 |
| 20260831165852 | 75 | 270 | 10.0 | 19.0 | 0.00 | 0.00 | 1.07 | 42 | 1016.3 |
| 20260831164412 | 75 | 270 | 10.0 | 19.0 | 0.00 | 0.00 | 1.07 | 42 | 1016.3 |
| 20260831163057 | 76 | 270 | 11.0 | 17.0 | 0.00 | 0.00 | 1.07 | 44 | 1016.4 |
| 20260831161747 | 76 | 270 | 11.0 | 17.0 | 0.00 | 0.00 | 1.07 | 44 | 1016.4 |
| 20260831160432 | 75 | 270 | 11.0 | 20.0 | 0.00 | 0.00 | 1.07 | 43 | 1016.6 |
| 20260831155132 | 75 | 270 | 11.0 | 20.0 | 0.00 | 0.00 | 1.07 | 43 | 1016.6 |
| 20260831153706 | 75 | 270 | 11.0 | 20.0 | 0.00 | 0.00 | 1.07 | 43 | 1016.6 |
| 20260831152412 | 76 | 270 | 9.0 | 17.0 | 0.00 | 0.00 | 1.07 | 42 | 1016.5 |
| 20260831150957 | 76 | 270 | 9.0 | 17.0 | 0.00 | 0.00 | 1.07 | 42 | 1016.5 |
| 20260831145620 | 76 | 270 | 11.0 | 21.0 | 0.00 | 0.00 | 1.07 | 42 | 1016.6 |
| 20260831144217 | 76 | 270 | 11.0 | 21.0 | 0.00 | 0.00 | 1.07 | 42 | 1016.6 |
| 20260831142850 | 74 | 270 | 13.0 | 21.0 | 0.00 | 0.00 | 1.07 | 44 | 1016.9 |
| 20260831141457 | 74 | 270 | 13.0 | 21.0 | 0.00 | 0.00 | 1.07 | 44 | 1016.9 |
| 20260831140153 | 74 | 270 | 12.0 | 22.0 | 0.00 | 0.00 | 1.07 | 47 | 1017.0 |
| 20260831134812 | 74 | 270 | 12.0 | 22.0 | 0.00 | 0.00 | 1.07 | 47 | 1017.0 |
| 20260831133521 | 73 | 270 | 14.0 | 22.0 | 0.00 | 0.00 | 1.07 | 48 | 1017.2 |
| 20260831132202 | 73 | 270 | 14.0 | 22.0 | 0.00 | 0.00 | 1.07 | 48 | 1017.2 |
| 20260831130808 | 73 | 270 | 14.0 | 22.0 | 0.00 | 0.00 | 1.07 | 48 | 1017.2 |
| 20260831125457 | 73 | 270 | 12.0 | 22.0 | 0.00 | 0.00 | 1.07 | 50 | 1017.5 |
| 20260831124041 | 73 | 270 | 12.0 | 22.0 | 0.00 | 0.00 | 1.07 | 50 | 1017.5 |
| 20260831122622 | 72 | 270 | 12.0 | 22.0 | 0.00 | 0.00 | 1.07 | 51 | 1017.7 |
| 20260831121207 | 72 | 270 | 12.0 | 22.0 | 0.00 | 0.00 | 1.07 | 51 | 1017.7 |
| 20260831115857 | 71 | 225 | 13.0 | 22.0 | 0.00 | 0.00 | 1.07 | 54 | 1017.7 |
| 20260831114547 | 71 | 225 | 13.0 | 22.0 | 0.00 | 0.00 | 1.07 | 54 | 1017.7 |
| 20260831113312 | 70 | 270 | 13.0 | 20.0 | 0.00 | 0.00 | 1.07 | 56 | 1017.9 |
| 20260831111922 | 70 | 270 | 13.0 | 20.0 | 0.00 | 0.00 | 1.07 | 56 | 1017.9 |
| 20260831110501 | 69 | 270 | 12.0 | 23.0 | 0.00 | 0.00 | 1.07 | 58 | 1018.1 |
| 20260831105147 | 69 | 270 | 12.0 | 23.0 | 0.00 | 0.00 | 1.07 | 58 | 1018.1 |
| 20260831103737 | 69 | 270 | 12.0 | 23.0 | 0.00 | 0.00 | 1.07 | 58 | 1018.1 |
| 20260831102406 | 68 | 270 | 14.0 | 23.0 | 0.00 | 0.00 | 1.07 | 56 | 1018.2 |
| 20260831101047 | 68 | 270 | 14.0 | 23.0 | 0.00 | 0.00 | 1.07 | 56 | 1018.2 |
| 20260831095632 | 67 | 270 | 12.0 | 20.0 | 0.00 | 0.00 | 1.07 | 63 | 1018.2 |
| 20260831094312 | 67 | 270 | 12.0 | 20.0 | 0.00 | 0.00 | 1.07 | 63 | 1018.2 |
| 20260831092941 | 66 | 270 | 11.0 | 19.0 | 0.00 | 0.00 | 1.07 | 70 | 1018.2 |
| 20260831091727 | 66 | 270 | 11.0 | 19.0 | 0.00 | 0.00 | 1.07 | 70 | 1018.2 |
| 20260831090312 | 65 | 270 | 11.0 | 17.0 | 0.00 | 0.00 | 1.07 | 71 | 1018.2 |
| 20260831084917 | 65 | 270 | 11.0 | 17.0 | 0.00 | 0.00 | 1.07 | 71 | 1018.2 |
| 20260831083533 | 65 | 270 | 10.0 | 17.0 | 0.00 | 0.00 | 1.07 | 76 | 1018.0 |
| 20260831082117 | 65 | 270 | 10.0 | 17.0 | 0.00 | 0.00 | 1.07 | 76 | 1018.0 |
| 20260831080657 | 65 | 270 | 10.0 | 17.0 | 0.00 | 0.00 | 1.07 | 76 | 1018.0 |
| 20260831075332 | 65 | 270 | 9.0 | 16.0 | 0.00 | 0.00 | 1.07 | 80 | 1017.5 |
| 20260831074007 | 65 | 270 | 9.0 | 16.0 | 0.00 | 0.00 | 1.07 | 80 | 1017.5 |
| 20260831072652 | 65 | 270 | 9.0 | 16.0 | 0.00 | 0.00 | 1.07 | 84 | 1017.3 |
| 20260831071300 | 65 | 270 | 9.0 | 16.0 | 0.00 | 0.00 | 1.07 | 84 | 1017.3 |
| 20260831065911 | 64 | 225 | 2.0 | 9.0 | 0.00 | 0.00 | 1.07 | 88 | 1017.2 |
| 20260831064552 | 64 | 225 | 2.0 | 9.0 | 0.00 | 0.00 | 1.07 | 88 | 1017.2 |
| 20260831063237 | 61 | 135 | 2.0 | 4.0 | 0.00 | 1.07 | 1.07 | 95 | 1017.3 |
| 20260831061902 | 61 | 135 | 2.0 | 4.0 | 0.00 | 1.07 | 1.07 | 95 | 1017.3 |
| 20260831060512 | 61 | 180 | 1.0 | 5.0 | 0.00 | 1.07 | 1.07 | 96 | 1017.2 |
| 20260831055042 | 61 | 180 | 1.0 | 5.0 | 0.00 | 1.07 | 1.07 | 96 | 1017.2 |